Regional Weather Roundup
Issued by NWS

Home | Current Version | Previous Version | Graphics & Text | Print | Product List | Glossary On
Versions: 1 2 3 4 5 6 7 8 9 10 11 12 13 14 15 16 17 18 19 20 21 22 23 24 25 26 27 28 29 30 31 32 33 34 35 36 37 38 39 40 41 42 43 44 45 46 47 48 49 50
000
ASUS43 KMKX 241510
RWRWI

WISCONSIN REGIONAL WEATHER ROUNDUP
NATIONAL WEATHER SERVICE MILWAUKEE/SULLIVAN WI
900 AM CST FRI NOV 24 2017

NOTE: "FAIR" INDICATES FEW OR NO CLOUDS BELOW 12,000 FEET WITH NO
SIGNIFICANT WEATHER AND/OR OBSTRUCTIONS TO VISIBILITY.

WIZ001-002-006>008-014>016-023>028-241600-
NORTHWEST WISCONSIN

CITY           SKY/WX    TMP DP  RH WIND       PRES   REMARKS
SUPERIOR ARPT  CLOUDY    44  36  73 NW12      29.29R
ASHLAND        PTSUNNY   46  34  62 S12       29.27F
HAYWARD        CLOUDY    46  36  68 S12       29.30F
SIREN          MOSUNNY   50  38  62 SW12G21   29.30F
CUMBERLAND     MOSUNNY   43  34  70 SW5       29.34R
RICE LAKE      MOSUNNY   46  37  70 SW5       29.36R
CHETEK         MOSUNNY   46  37  71 S9G16     29.32F
LADYSMITH      CLOUDY    46  36  68 S10G16    29.34F
EAU CLAIRE     SUNNY     50  37  61 S14       29.36F
MENOMONIE      CLOUDY    49  37  63 S10       29.36F
NEW RICHMOND   CLOUDY    46  36  68 SW8       29.35S
OSCEOLA        CLOUDY    47  38  71 S8        29.35F
$$

WIZ003>005-009-010-017-018-241600-
NORTH CENTRAL WISCONSIN

CITY           SKY/WX    TMP DP  RH WIND       PRES   REMARKS
MANITOWISH WTR SUNNY     42  35  76 S8        29.32F
ARBOR VITAE    CLOUDY    42  35  74 S9        29.33F
WOODRUFF       CLOUDY    42  35  74 S9        29.33F
RHINELANDER    CLOUDY    45  35  68 SW15G25   29.36F
EAGLE RIVER    CLOUDY    44  32  63 SW10G16   29.33F
LAND O LAKES   SUNNY     44  33  64 SW10G21   29.33F
PHILLIPS       SUNNY     45  36  70 SW10      29.33F
TOMAHAWK       CLOUDY    42  33  70 S5        29.37F
MEDFORD        MOSUNNY   43  34  69 S14       29.39F
MERRILL        SUNNY     45  34  65 SW12G18   29.41F
$$

WIZ029-030-035-036-043>047-241600-
CENTRAL WISCONSIN

CITY           SKY/WX    TMP DP  RH WIND       PRES   REMARKS
WAUSAU         CLOUDY    44  33  65 VRB6      29.41F
MOSINEE        PTSUNNY   45  36  70 S10       29.44F
MARSHFIELD     SUNNY     47  34  60 S14       29.41F
STEVENS POINT  CLOUDY    46  33  60 S10G17    29.44F
WAUPACA        MOSUNNY   49  33  54 S9        29.48F
WAUTOMA        CLOUDY    44  32  62 S7        29.50F
WISC RAPIDS    MOSUNNY   47  34  60 SW12      29.45F
CAMP DOUGLAS   SUNNY     51  35  54 S7        29.46F
$$

WIZ011>013-019>022-031-037>040-048>050-241600-
NORTHEAST WISCONSIN

CITY           SKY/WX    TMP DP  RH WIND       PRES   REMARKS
ANTIGO         CLOUDY    43  34  69 SW12      29.41F
SHAWANO        CLOUDY    46  32  58 SW5       29.45F
OCONTO         MOSUNNY   46  32  58 SW14G24   29.45F
STURGEON BAY   MOSUNNY   50  34  54 SW17G26   29.45F
GREEN BAY      MOSUNNY   45  35  68 SW14G21   29.48F
MANITOWOC      MOSUNNY   54  34  46 SW14      29.51F
APPLETON       PTSUNNY   45  28  53 SW22      29.48F
CLINTONVILLE   CLOUDY    46  32  57 SW13      29.46F
OSHKOSH        MOSUNNY   47  33  58 S20G28    29.49F
$$

WIZ032>034-041-042-053>061-241600-
SOUTHWEST WISCONSIN

CITY           SKY/WX    TMP DP  RH WIND       PRES   REMARKS
LA CROSSE      SUNNY     49  35  58 S10G18    29.45F
SPARTA         SUNNY     50  36  58 S10G16    29.47F
VIROQUA        SUNNY     49  37  63 S14       29.49F
BOSCOBEL       SUNNY     51  34  52 S7        29.53F
PRAIRIE DU CHI SUNNY     51  33  51 CALM      29.51F
PLATTEVILLE    SUNNY     47  37  68 S18       29.56F
$$

WIZ056-057-062-063-064-067-068-241600-
SOUTH CENTRAL WISCONSIN

CITY           SKY/WX    TMP DP  RH WIND       PRES   REMARKS
REEDSBURG      SUNNY     49  34  55 SW15      29.51F
BARABOO/DELLS  SUNNY     52  33  48 SW15      29.50F
LONE ROCK      SUNNY     50  35  56 SW5       29.54F
MINERAL POINT  SUNNY     50  36  57 S18       29.55F
MADISON        MOSUNNY   47  33  58 S13G23    29.57F
MIDDLETON      SUNNY     51  33  52 SW16      29.56F
WATERTOWN      SUNNY     49  34  56 S10G18    29.58F
MONROE         SUNNY     45  32  61 S25       29.59F
JANESVILLE     MOSUNNY   46  34  61 S13       29.62F
$$

WIZ051-052-058>065-066-070>072-241600-
SOUTHEAST WISCONSIN

CITY           SKY/WX    TMP DP  RH WIND       PRES   REMARKS
MILWAUKEE      PTSUNNY   49  33  54 SW18      29.62F
WAUKESHA       SUNNY     45  30  57 SW21G28   29.62F
MILWAUKEE/TIMM SUNNY     48  30  49 SW14      29.61F
RACINE         SUNNY     48  33  56 SW15G28   29.66F
BURLINGTON     SUNNY     48  37  66 S17       29.64F
KENOSHA        SUNNY     47  31  53 SW15G29   29.65F
FOND DU LAC    MOSUNNY   47  31  53 S16G26    29.52F
SHEBOYGAN      MOSUNNY   52  34  50 SW17      29.54F
WEST BEND      MOSUNNY   50  32  50 SW16      29.56F
JUNEAU         MOSUNNY   46  32  59 S16G26    29.58F
$$

LSZ147-162-241600-
LAKE SUPERIOR

STATION/POSITION TIME  TEMP    WIND        PRES    WAVE
                       AIR SEA DIR/SP/G            HT/PER
                 (UTC) (F)     (DEG/KT/KT) (MB)    (FT/S)
DEVILS ISLAND    1500   43     270/ 16/ 19  990.9R
SAXON HARBOR     1440   51     200/  9/ 15  990.5F
$$

LMZ867-665-643>646-241600-
LAKE MICHIGAN

STATION/POSITION TIME  TEMP    WIND        PRES    WAVE
                       AIR SEA DIR/SP/G            HT/PER
                 (UTC) (F)     (DEG/KT/KT) (MB)    (FT/S)
N MID LAKE BUOY  1450   47 47  200/ 27/ 33  997.3F   9/ 7
NORTHPORT PIER   1440   42     180/  5/ 12  997.3F
KEWAUNEE LAKESHO 1448   43     180/ 11/ 12  998.3F
SHEBOYGAN LAKESH 1500   43     180/ 22/ 23 1000.6F
PORT WASHINGTON  1430   47     210/  8/ 11 1003.4F
MILWAUKEE LAKESH 1450   47     220/ 15/ 18   N/A
S MID LAKE BUOY  1450   46 47  210/ 23/ 27 1005.3F   5/ 5
KENOSHA   LAKESH 1500   49     200/ 13/ 20 1004.4
$$

TC  - TEMPERATURE IN CELSIUS
VSB - VISIBILITY IN STATUTE MILES
WCI - WIND CHILL INDEX
HX  - HEAT INDEX




USA.gov is the U.S. government's official web portal to all federal, state and local government web resources and services.